{"data":{"norad_id":63731,"epoch":"2026-09-21T09:43:24.219552Z","epoch_age_seconds":126505,"freshness":"FRESH","line1":"1 63731U 25088H   26264.40514143 -.00000733  00000+0 -67194-4 0  9990","line2":"2 63731  51.9015 332.6579 0000213  95.3917 264.7070 14.79927171 76689","mean_motion":14.79927171,"eccentricity":2.13e-5,"inclination_deg":51.9015,"raan_deg":332.6579,"arg_perigee_deg":95.3917,"mean_anomaly_deg":264.707,"bstar":-6.7194e-5,"rev_number":7668,"period_min":97.30208541458,"perigee_km":629.40476612502,"apogee_km":629.7032937629,"semimajor_km":7007.691029944,"source":"CELESTRAK","updated_at":"2026-09-22T09:00:29.316837Z"}}